Regional Weather Roundup
Issued by NWS

Home | Current Version | Previous Version | Graphics & Text | Print | Product List | Glossary On
Versions: 1 2 3 4 5 6 7 8 9 10 11 12 13 14 15 16 17 18 19 20 21 22 23 24 25 26 27 28 29 30 31 32 33 34 35 36 37 38 39 40 41 42 43 44 45 46 47 48 49 50
000
ASUS45 KPSR 242310
RWRAZ

ARIZONA REGIONAL HOURLY WEATHER ROUNDUP
NATIONAL WEATHER SERVICE PHOENIX AZ
400 PM MST SAT JAN 24 2015

NOTE: FAIR INDICATES FEW OR NO CLOUDS BELOW 12,000 FEET WITH NO
SIGNIFICANT WEATHER AND/OR OBSTRUCTIONS TO VISIBILITY.

AZZ001>003-036-250000-
NORTHWEST ARIZONA

CITY           SKY/WX    TMP DP  RH WIND       PRES   REMARKS
BULLHEAD CITY  SUNNY     70  23  17 N23G32    30.13F
KINGMAN        SUNNY     62  15  16 N14       30.19F
$$

AZZ004>008-015-016-018-250000-
NORTH CENTRAL ARIZONA

CITY           SKY/WX    TMP DP  RH WIND       PRES   REMARKS
GRAND CANYON   SUNNY     49  11  21 NE8       30.29F
PRESCOTT       SUNNY     61  10  13 NE9       30.19S
FLAGSTAFF      SUNNY     47  10  22 NE10      30.27F
PAYSON         SUNNY     59  16  18 E9G16     30.19S
$$

AZZ009>014-017-250000-
NORTHEAST ARIZONA

CITY           SKY/WX    TMP DP  RH WIND       PRES   REMARKS
WINSLOW        SUNNY     51  17  26 N5        30.27F
SAINT JOHNS    SUNNY     51  17  26 CALM      30.24F
WINDOW ROCK    SUNNY     51  19  28 CALM      30.24F
SHOW LOW       SUNNY     46  16  29 N10       30.28S
$$

AZZ023-250000-
GREATER PHOENIX AREA

CITY           SKY/WX    TMP DP  RH WIND       PRES   REMARKS
PHOENIX        MOSUNNY   75  12   9 E5        30.01F
BUCKEYE          N/A     75  14   9 E9        30.03S
GLENDALE       MOSUNNY   75  10   8 N8        30.03F
LUKE AFB       NOT AVBL
DEER VALLEY    SUNNY     74   5   7 VRB5      30.02F
SCOTTSDALE     SUNNY     75   7   7 E8        30.04F
MESA-FALCON    MOSUNNY   75   9   7 MISG      30.02F
MESA-GATEWAY   MOSUNNY   73   9   8 E20       30.04F
CHANDLER       MOSUNNY   73  16  11 E12G18    30.02F
$$

AZZ027-028-250000-
SOUTHWEST MARICOPA COUNTY AND PINAL COUNTY

CITY           SKY/WX    TMP DP  RH WIND       PRES   REMARKS
CASA GRANDE    SUNNY     72  16  12 E14       30.03F
GILA BEND      FAIR      74  15  10 E12       30.01F
$$

AZZ503-504-507>509-250000-
SOUTHEAST ARIZONA

CITY           SKY/WX    TMP DP  RH WIND       PRES   REMARKS
TUCSON         SUNNY     70   8   9 E9        30.06S
DAVIS-MONTHAN  SUNNY     69   9  10 E12       30.04S
RYAN FIELD       N/A     72  12  10 NE8       30.05F
NOGALES        MOSUNNY   70   7   8 NE9       30.05S
SIERRA VISTA   SUNNY     61   3  10 E5        30.12F
DOUGLAS        SUNNY     62   9  12 E14       30.12S
SAFFORD        SUNNY     61  12  14 S9        30.16F
$$

AZZ020-021-025-026-031-250000-
SOUTHWEST ARIZONA

CITY           SKY/WX    TMP DP  RH WIND       PRES   REMARKS
YUMA           SUNNY     77  17  10 N15       30.01F
$$

CAZ031-033-041-043-047-048-061-250000-
SOUTHERN CALIFORNIA

CITY           SKY/WX    TMP DP  RH WIND       PRES   REMARKS
DOWNTOWN L.A.  SUNNY     81  26  13 CALM      29.98S
L.A. AIRPORT   MOSUNNY   75  30  19 SW7       29.99S
SAN DIEGO      MOSUNNY   76  25  15 SW8       29.97S
BURBANK        SUNNY     81  19  10 NE6       29.99S
ONTARIO        SUNNY     77  19  11 NE25G40   30.01F
RIVERSIDE      SUNNY     76  21  12 NE14G28   30.04S
PALM SPRINGS   SUNNY     78  17  10 NW12      30.10F
EL CENTRO NAS  MOSUNNY   77  19  11 NW9       30.04F
IMPERIAL       SUNNY     77  16  10 NE16      30.03F
BLYTHE         SUNNY     76  14   9 N16       30.05F
NEEDLES        SUNNY     72  17  12 N21G31    30.12F
$$

NVZ020-UTZ003-250000-
SOUTHERN NEVADA-UTAH

CITY           SKY/WX    TMP DP  RH WIND       PRES   REMARKS
LAS VEGAS      SUNNY     67  19  16 E3        30.19F
SALT LAKE CITY CLOUDY    39  25  57 NW7       30.45S WCI  34
$$

NMZ009-TXZ055-250000-
NEW MEXICO-WEST TEXAS

CITY           SKY/WX    TMP DP  RH WIND       PRES   REMARKS
ALBUQUERQUE    MOSUNNY   50  19  29 VRB3      30.21F
EL PASO        PTSUNNY   53  24  32 N12       30.19F
$$


........................KEY........................
SKY/WX - SKY CONDITION/WEATHER
TMP    - TEMPERATURE IN FAHRENHEIT
DP     - DEW POINT IN FAHRENHEIT
RH     - RELATIVE HUMIDITY IN PERCENT
WIND   - DIRECTION AND SPEED IN MILES PER HOUR (MPH)
VRB    - VARIABLE WIND DIRECTION
PRES   - MEAN SEA LEVEL PRESSURE IN INCHES OF MERCURY
         F - FALLING PRESSURE   R - RISING PRESSURE
         S - STEADY PRESSURE
VSB    - VISIBILITY IN MILES
HX     - HEAT INDEX IN FAHRENHEIT
WCI    - WIND CHILL INDEX IN FAHRENHEIT
TC     - TEMPERATURE IN CELSIUS WHICH IS ALSO KNOWN AS
         TEMPERATURE IN CENTIGRADE
AFB    - AIR FORCE BASE
         LUKE AFB IS LUKE AIR FORCE BASE
         DAVIS-MONTHAN IS DAVIS-MONTHAN AIR FORCE BASE
NAS    - NAVAL AIR STATION
         EL CENTRO NAS IS EL CENTRO NAVAL AIR STATION
N/A    - NOT AVAILABLE


USA.gov is the U.S. government's official web portal to all federal, state and local government web resources and services.